HST 1 20580U 90037B 25347.18396407 .00010978 00000+0 38148-3 0 9994 2 20580 28.4685 269.4662 0001790 244.6720 115.3690 15.28062026760063 POLAR 1 23802U 96013A 25340.48239671 .00000144 00000+0 00000+0 0 9995 2 23802 79.6240 229.2201 6278774 215.5988 78.9527 1.29846135142354 SWAS 1 25560U 98071A 25347.39432635 .00006632 00000+0 43675-3 0 9993 2 25560 69.8975 346.0938 0006560 214.2169 145.8573 15.07961253469246 CXO 1 25867U 99040B 25349.26321703 .00000427 00000+0 00000+0 0 9998 2 25867 53.0917 122.4070 8132318 310.8570 0.2053 0.37806491 16624 XMM-NEWTON 1 25989U 99066A 25348.86070804 .00000000 00000+0 00000+0 0 9996 2 25989 65.4202 285.4201 4741379 68.1367 0.1740 0.50134243 22088 TERRA 1 25994U 99068A 25347.70254029 .00000716 00000+0 15544-3 0 9996 2 25994 97.9749 39.3517 0003600 92.5015 18.6853 14.60903286382525 CLUSTER II-FM7 (SAMBA) 1 26410U 00041A 25345.66933458 .00002368 00000+0 00000+0 0 9998 2 26410 147.5981 25.0516 8757920 240.7596 359.8579 0.44796275 19471 CLUSTER II-FM8 (TANGO) 1 26464U 00045B 25348.77015114 .00003110 00000+0 00000+0 0 9992 2 26464 147.9375 25.9770 8766037 241.5722 359.9285 0.44419793 19473 ODIN 1 26702U 01007A 25347.61116285 .00034499 00000+0 58602-3 0 9998 2 26702 97.4228 15.5632 0005139 105.4230 254.7590 15.51377273360468 TIMED 1 26998U 01055B 25347.44730445 .00002793 00000+0 26084-3 0 9990 2 26998 74.0689 248.8468 0001049 217.6957 142.4154 14.94695858303063 CORIOLIS 1 27640U 03001A 25347.58831632 .00000207 00000+0 11818-3 0 9990 2 27640 98.7142 352.3091 0014534 31.3619 328.8421 14.19872524187888 SORCE 1 27651U 03004A 25347.10336930 .00005892 00000+0 44809-3 0 9995 2 27651 39.9901 242.3327 0015993 158.3088 201.8386 15.02289282243890 MOST 1 27843U 03031D 25347.64253834 .00000155 00000+0 91331-4 0 9998 2 27843 98.7068 352.9514 0010887 70.5143 289.7210 14.21270533164353 SCISAT 1 1 27858U 03036A 25347.63685724 .00001067 00000+0 14199-3 0 9994 2 27858 73.9286 179.9299 0008550 283.4786 76.5438 14.81120845203977 SWIFT 1 28485U 04047A 25347.63966149 .00040415 00000+0 66249-3 0 9990 2 28485 20.5524 157.7470 0003398 290.0764 69.9313 15.50632138157850 HINODE (SOLAR-B) 1 29479U 06041A 25347.64371911 .00001083 00000+0 19569-3 0 9999 2 29479 98.0650 1.4741 0018132 153.0409 207.1742 14.68304307 27643 SHIJIAN-6 02A (SJ-6 02A) 1 29505U 06046A 25347.65047764 .00010616 00000+0 58290-3 0 9997 2 29505 97.6626 22.3982 0004657 67.7979 292.3746 15.14308696 44163 SHIJIAN-6 02B (SJ-6 02B) 1 29506U 06046B 25347.62147278 .00002747 00000+0 22217-3 0 9992 2 29506 97.6888 13.1977 0014006 334.9527 25.1016 15.00538436 42907 FGRST (GLAST) 1 33053U 08029A 25347.58901698 .00005026 00000+0 19608-3 0 9999 2 33053 25.5833 51.9833 0007896 299.7194 60.2558 15.22604008967503 SDO 1 36395U 10005A 25347.27995576 -.00000068 00000+0 00000+0 0 9996 2 36395 34.2630 89.1775 0001064 141.1302 210.7149 1.00270164 58194 CRYOSAT 2 1 36508U 10013A 25347.68672512 .00000226 00000+0 55348-4 0 9993 2 36508 92.0259 232.3993 0002339 94.8694 265.2780 14.51903312831167 X-SAT 1 37389U 11015C 25347.66813573 -.00000006 00000+0 14984-4 0 9994 2 37389 98.3313 328.7610 0014218 163.0969 197.0688 14.25128669761250 GCOM-W1 (SHIZUKU) 1 38337U 12025A 25347.57767321 .00001026 00000+0 23774-3 0 9997 2 38337 98.2215 285.7743 0001397 68.8458 104.6640 14.57127149722001 NUSTAR 1 38358U 12031A 25347.66679398 .00018918 00000+0 11864-2 0 9997 2 38358 6.0290 343.4261 0009726 236.1994 292.7347 15.06422134 1303 NEOSSAT 1 39089U 13009D 25347.48970875 .00000369 00000+0 14225-3 0 9995 2 39089 98.4074 167.0006 0012117 81.1143 279.1414 14.35731280670097 BRITE-AUSTRIA 1 39091U 13009F 25347.51041733 .00000391 00000+0 14776-3 0 9990 2 39091 98.3887 166.6110 0011322 76.2200 284.0246 14.36436697670394 IRIS 1 39197U 13033A 25347.54164719 .00002513 00000+0 29762-3 0 9996 2 39197 97.9392 182.3261 0024011 203.6967 156.3144 14.85284834672819 HISAKI (SPRINT-A) 1 39253U 13049A 25347.67938272 .00000144 00000+0 10658-3 0 9995 2 39253 29.7206 83.1237 0136974 312.9621 45.9535 13.55521562606231 CASSIOPE 1 39265U 13055A 25347.63052608 .00047211 -14047-6 62714-3 0 9991 2 39265 80.9216 289.8489 0341360 322.3255 35.4490 15.11569359639503 STSAT-3 1 39422U 13066G 25347.65871394 .00005842 00000+0 45660-3 0 9992 2 39422 97.6005 316.0102 0013793 311.2190 48.7845 15.01393064656355 SWARM B 1 39451U 13067A 25347.64726496 .00004614 00000+0 17282-3 0 9991 2 39451 87.7446 38.5836 0003238 84.9152 275.2466 15.27026446654912 SWARM A 1 39452U 13067B 25347.66054143 .00014447 00000+0 29036-3 0 9992 2 39452 87.3358 124.9243 0002242 88.6949 271.4567 15.46506862677531 SWARM C 1 39453U 13067C 25347.66044844 .00014488 00000+0 29120-3 0 9999 2 39453 87.3356 123.5094 0002235 89.2443 270.9072 15.46505272677491 BRITE-CA1 (TORONTO) 1 40020U 14033L 25347.59176009 .00002084 00000+0 32212-3 0 9991 2 40020 97.9488 115.3062 0079905 150.3575 210.2197 14.72214648614908 OCO 2 1 40059U 14035A 25347.60974978 .00000959 00000+0 22318-3 0 9993 2 40059 98.2217 286.5514 0001237 96.0385 264.0954 14.57048542609021 BRITE-PL2 (HEWELIUSZ) 1 40119U 14049B 25347.26971629 .00003401 00000+0 32666-3 0 9999 2 40119 97.8993 93.1369 0014524 11.9017 348.2543 14.93663678613684 MMS 1 1 40482U 15011A 25347.66679398 -.00000209 00000+0 00000+0 0 9991 2 40482 69.2239 351.5490 8501695 163.3729 96.0006 0.28339957 1382 MMS 2 1 40483U 15011B 25347.66679398 -.00000209 00000+0 00000+0 0 9992 2 40483 69.2213 351.5396 8503151 163.3894 95.9674 0.28339946 1389 MMS 3 1 40484U 15011C 25347.66679398 -.00000209 00000+0 00000+0 0 9993 2 40484 69.2259 351.5561 8503098 163.3853 95.9629 0.28339938 1380 MMS 4 1 40485U 15011D 25347.66679398 -.00000209 00000+0 00000+0 0 9994 2 40485 69.2254 351.5485 8504412 163.3722 96.0003 0.28339951 1379 ASTROSAT 1 40930U 15052A 25347.05339646 .00002823 00000+0 26467-3 0 9998 2 40930 5.9977 54.6937 0008911 259.0068 100.9058 14.82019056552166 DAMPE 1 41173U 15078A 25347.61966368 .00000928 00000+0 34397-4 0 9991 2 41173 97.4550 347.2734 0012889 22.3254 337.8545 15.30157253556164 PISAT 1 41784U 16059B 25347.50285568 .00002007 00000+0 35182-3 0 9995 2 41784 97.8163 351.0299 0030719 79.3122 281.1541 14.68499380492484 HXMT (HUIYAN) 1 42758U 17034A 25347.64722775 .00005827 00000+0 30410-3 0 9994 2 42758 43.0128 134.5922 0031399 49.2839 311.0729 15.16255230469475 FLYING LAPTOP 1 42831U 17042G 25347.66931075 .00005102 00000+0 41462-3 0 9997 2 42831 97.4234 146.2469 0014948 46.1565 314.0892 14.99920878458634 ZHANGHENG 1-01 (CSES-1) 1 43194U 18015C 25347.72664870 .00013339 00000+0 60277-3 0 9990 2 43194 97.6653 144.9197 0018041 202.3364 157.7087 15.20935505436450 SALSAT 1 46495U 20068K 25347.51504503 .00011058 00000+0 42804-3 0 9993 2 46495 97.8788 334.8293 0008963 226.0561 133.9938 15.26342696287004 IXPE 1 49954U 21121A 25347.66679398 .00019669 00000+0 11809-2 0 9994 2 49954 0.2307 278.9037 0007089 157.0341 270.7796 15.07990284 5330